Temperature
22 22 22 22 25 25 23 23 23 23 23 22 22 22 22 22 22 20 18 17 17 17 17 17 17 17 17 17 17 17 17 17 17 17 17 17 17 17 17 17 17 17 18 17 17 17 17 17 17
22 22 22 24 25 24 22 23 23 23 22 21 22 22 22 21 20 19 17 17 17 17 17 17 17 17 17 17 17 17 17 17 17 17 17 17 17 17 17 17 17 17 17 17 17 17 17 17 17
22 22 23 25 24 24 23 23 23 22 21 22 22 21 21 20 19 18 17 17 17 17 16 17 17 17 17 17 17 17 17 17 17 17 17 17 17 17 17 17 17 17 17 17 17 17 17 17 17
22 22 24 24 23 23 23 23 23 23 22 22 22 22 20 18 18 18 17 17 17 17 17 17 17 17 17 17 17 17 17 17 17 17 17 17 17 17 17 17 17 17 17 17 17 17 17 17 17
22 24 24 23 23 23 23 23 23 23 23 22 22 21 20 18 18 17 17 17 17 17 17 17 17 17 17 17 17 17 17 17 17 17 17 17 17 17 17 17 17 17 17 17 17 17 17 17 17
23 25 24 23 22 23 23 22 23 23 22 21 22 21 19 18 17 17 17 17 17 17 17 17 17 17 17 17 17 17 17 17 17 17 17 17 17 17 17 17 17 17 17 17 17 17 17 17 17
24 24 24 23 22 22 23 22 23 23 22 21 21 22 19 18 17 17 17 17 17 17 17 17 17 17 17 17 17 17 17 17 17 17 17 17 17 17 17 17 17 17 17 16 16 16 16 17 16
22 24 23 23 23 22 22 22 22 22 22 20 21 21 20 18 17 17 17 17 17 17 17 17 17 17 17 17 17 17 17 17 17 17 17 17 16 16 16 16 17 16 16 16 16 16 16 16 16
22 24 23 23 23 22 22 22 21 21 21 20 20 20 19 18 17 17 17 17 17 17 17 17 17 17 17 16 16 16 16 16 16 16 16 16 16 16 16 16 16 16 16 16 16 16 16 16 16
24 24 23 23 23 23 22 22 22 22 21 21 20 18 18 18 18 18 18 18 17 17 17 17 17 17 17 16 16 16 16 16 16 16 16 16 16 16 16 16 16 16 16 16 16 16 16 15 15
24 23 23 23 22 22 22 22 21 22 22 21 20 19 18 18 18 18 18 18 17 17 17 17 17 17 17 16 16 16 16 16 16 16 16 16 16 16 16 16 16 16 16 15 15 15 15 15 15
23 23 22 22 21 22 22 22 21 21 21 20 20 19 18 18 18 18 18 17 17 17 17 17 17 17 17 17 16 16 16 16 16 16 16 16 16 16 16 16 15 15 15 15 15 15 15 15 15
23 22 22 21 21 21 21 21 21 20 20 19 19 19 18 18 18 18 18 17 17 17 17 17 17 17 17 17 16 16 16 16 16 16 16 16 16 16 16 15 15 15 15 15 15 15 15 15 15
22 22 22 22 22 21 21 21 21 20 19 19 19 19 18 18 18 18 18 18 17 17 17 17 17 17 17 16 16 16 16 16 16 16 16 16 16 16 15 15 15 15 15 15 15 15 15 15 14
22 23 22 22 22 22 22 21 21 20 19 19 19 19 18 18 18 18 18 18 17 17 17 17 17 17 17 16 16 16 16 16 16 16 16 16 15 15 15 15 15 15 15 15 15 15 15 14 14
23 23 22 22 22 21 22 21 21 19 19 19 19 19 18 18 18 18 18 17 17 17 17 17 17 17 16 16 16 16 16 16 16 15 15 15 15 15 15 15 15 15 15 15 15 14 14 14 14
23 23 22 22 22 22 22 21 21 19 19 19 19 19 18 18 18 17 17 17 17 17 17 17 17 17 16 16 16 16 16 16 16 15 15 15 15 15 15 15 15 15 14 14 14 14 14 14 14
23 23 22 22 22 22 21 21 21 19 19 20 19 19 19 18 18 18 17 17 17 17 17 17 17 17 16 16 16 16 16 16 15 15 15 15 15 15 15 15 15 14 14 14 14 14 14 14 14
23 23 22 22 22 21 21 21 21 20 20 20 20 19 19 18 18 17 17 17 17 17 17 17 17 17 16 16 16 16 16 15 15 15 15 15 15 15 15 15 14 14 14 14 14 14 14 14 14
22 22 22 22 21 21 21 21 22 20 20 19 19 19 19 18 18 17 17 17 17 17 17 17 17 16 16 16 16 16 16 15 15 15 15 15 15 15 14 14 14 14 14 14 14 14 13 13 13
22 22 22 22 21 21 21 21 22 21 20 19 18 18 18 18 18 17 17 16 16 16 16 16 16 16 16 16 16 16 15 15 15 15 15 15 15 15 14 14 14 14 14 14 14 13 13 13 13
22 22 22 21 22 22 21 21 22 22 21 20 19 18 18 17 17 17 16 16 16 16 16 16 16 16 16 16 16 15 15 15 15 15 15 14 14 14 14 14 14 14 13 13 13 13 13 13 13
22 21 21 21 22 22 22 22 22 22 21 21 20 18 18 17 17 16 16 16 16 16 16 16 16 16 16 16 15 15 15 15 15 14 14 14 14 14 14 14 14 13 13 13 13 13 13 13 12
21 21 21 21 22 21 21 21 21 22 21 21 20 19 18 17 16 16 16 16 16 16 16 16 15 16 15 15 15 15 15 15 14 14 14 14 14 14 14 14 13 13 13 13 13 13 13 12 12
21 21 21 21 21 21 21 20 21 21 21 20 20 19 18 17 16 16 15 15 16 16 15 15 15 15 15 15 15 15 14 14 14 14 14 14 14 13 13 13 13 13 13 12 12 12 12 12 12
21 22 21 20 21 21 21 21 22 21 20 19 19 18 17 17 16 16 15 15 15 15 15 15 15 15 14 14 14 14 14 14 14 14 14 13 13 13 13 13 13 13 13 12 12 12 12 12 12
21 21 21 21 21 21 21 21 21 20 20 19 18 18 17 16 16 15 15 15 15 15 15 15 15 14 14 14 14 14 14 14 13 13 13 13 13 13 13 13 12 12 12 12 12 12 12 11 11
21 21 21 21 20 20 21 21 21 20 20 20 19 17 17 16 15 15 15 15 15 15 14 14 14 14 14 13 13 13 13 13 13 13 13 13 13 12 12 12 12 12 12 12 12 11 11 11 11
20 20 20 20 20 20 20 21 21 21 20 20 19 17 16 16 15 15 15 15 14 14 14 14 14 14 13 13 13 13 13 13 13 13 12 12 12 12 12 12 12 12 12 11 11 11 11 11 11
20 20 20 20 20 20 20 20 21 20 19 19 18 17 16 15 15 14 14 14 14 14 14 14 13 13 13 13 13 13 13 13 12 12 12 12 12 12 11 11 11 11 11 11 11 11 11 10 10
Wind_Speed
2 1 1 1 2 5 9 6 5 6 5 7 7 6 7 8 6 6 4 4 4 5 6 7 8 8 8 9 10 10 10 11 10 10 10 10 10 10 10 11 10 10 10 10 10 9 9 9 9
1 0 1 0 2 7 7 6 7 7 6 5 6 7 8 8 7 6 4 4 4 5 6 8 8 8 8 9 9 10 10 10 10 10 10 10 10 10 10 11 11 10 11 10 10 10 9 10 10
1 1 1 2 4 6 7 6 7 8 6 4 5 6 6 6 5 4 4 4 5 6 6 8 7 8 9 9 10 10 10 10 10 10 10 10 10 10 10 11 11 11 11 10 10 10 10 10 10
1 1 2 5 10 8 7 7 7 8 6 5 5 7 6 6 4 5 5 5 6 6 7 9 8 8 9 9 10 10 10 10 10 10 10 10 10 11 11 11 11 11 11 10 10 10 10 10 10
1 1 5 8 10 8 7 7 6 7 6 6 6 8 7 6 6 6 6 5 6 6 7 9 9 8 9 9 10 10 10 10 10 11 10 11 11 11 11 11 10 10 11 11 11 11 11 11 11
1 2 5 8 10 8 8 6 7 8 8 7 6 7 6 5 5 5 5 5 6 6 6 8 8 9 9 9 9 10 10 10 10 10 10 10 10 10 10 11 10 10 11 11 12 12 12 13 12
3 4 7 10 10 8 6 5 6 7 8 6 4 6 6 5 5 5 5 6 6 6 6 6 6 7 8 9 9 10 10 10 10 10 9 9 9 10 10 10 11 11 11 12 12 13 13 13 12
2 5 8 8 8 8 6 6 6 6 7 5 3 5 5 5 5 5 5 6 6 5 5 5 6 6 6 8 9 9 10 10 9 9 8 6 7 8 8 9 10 10 10 11 11 12 12 12 12
2 5 7 7 7 8 7 7 6 5 7 6 6 7 6 7 6 6 6 5 5 5 4 4 5 6 6 7 7 7 7 7 6 6 5 3 5 7 7 10 9 10 10 10 10 10 10 9 10
3 5 7 6 7 8 8 7 6 6 7 6 6 7 7 7 6 6 5 5 5 5 5 4 4 5 5 5 5 5 6 6 6 6 5 5 6 6 6 8 8 9 8 9 9 7 6 5 7
5 7 8 7 7 8 8 7 5 6 5 4 5 7 7 7 5 5 5 5 5 4 4 4 4 4 4 4 4 4 4 5 5 6 6 5 5 5 5 5 5 6 5 7 6 5 6 7 7
8 9 8 7 7 7 7 6 5 4 4 4 5 7 7 6 5 4 4 4 4 4 4 3 3 3 4 4 4 3 4 4 5 5 6 5 4 4 4 4 5 5 5 5 5 4 6 7 7
9 8 8 8 8 7 7 6 5 4 4 5 6 6 6 5 5 4 4 3 3 3 2 3 3 3 3 3 2 3 4 4 5 5 6 6 4 4 4 4 4 5 5 4 4 4 6 6 7
8 9 8 7 6 5 6 5 4 4 4 6 6 5 5 4 4 4 3 3 2 2 2 2 2 3 3 3 2 3 3 3 5 5 6 6 5 4 4 4 4 4 4 4 4 5 4 5 5
9 9 7 4 3 3 4 4 3 2 4 5 5 5 4 4 3 2 2 2 2 2 2 2 1 2 2 3 3 3 3 3 4 4 5 6 5 5 4 4 4 4 4 4 4 4 4 4 4
6 6 5 3 3 3 4 3 3 2 4 4 4 4 4 3 2 2 1 1 1 1 1 2 1 1 2 2 2 2 3 3 3 4 4 5 5 5 4 4 4 5 4 3 3 3 3 3 3
4 5 4 4 2 3 3 2 3 2 3 3 4 4 3 3 2 1 1 1 1 1 1 1 2 1 1 1 2 2 2 3 3 3 3 4 4 4 4 4 4 5 4 3 3 3 3 3 3
4 4 4 4 3 3 4 2 2 3 3 4 4 3 3 3 2 1 1 1 1 1 1 2 2 1 1 1 1 2 2 2 3 3 3 3 3 4 4 3 4 4 3 3 3 3 3 3 3
3 3 3 2 2 3 4 4 3 3 4 4 5 4 4 3 2 2 1 1 1 1 1 1 1 1 1 1 0 0 1 1 2 2 3 3 3 3 3 2 3 3 3 3 4 3 3 3 3
4 4 3 2 2 3 3 4 4 4 5 5 5 5 4 4 3 2 2 2 1 1 1 1 1 1 1 0 0 0 0 1 2 2 3 3 3 3 2 2 2 2 2 3 3 3 2 2 2
3 4 3 3 2 4 4 5 5 4 4 4 5 5 5 4 4 4 3 3 2 1 1 1 1 1 1 1 1 1 1 1 1 1 2 2 2 2 2 2 2 2 2 2 2 2 2 2 2
3 3 4 4 5 3 4 4 3 4 4 4 5 5 5 5 5 4 4 3 3 2 1 1 0 0 0 1 1 1 1 0 1 1 1 1 2 2 2 2 1 1 1 1 1 1 1 1 1
2 1 3 5 6 6 5 5 2 2 3 3 4 5 5 5 5 5 4 4 3 2 2 1 1 1 1 1 1 1 0 0 0 0 0 0 1 1 2 2 1 0 0 1 1 1 0 0 1
3 4 3 4 6 7 5 5 3 1 3 3 3 4 4 4 5 5 4 4 3 2 2 2 1 1 1 1 1 1 1 1 0 1 1 0 0 1 1 1 1 1 1 1 1 1 1 1 1
4 5 4 4 5 3 1 4 3 2 2 4 3 3 3 4 5 5 5 5 4 3 3 2 2 2 1 1 1 0 1 1 1 1 1 1 1 0 1 1 1 1 1 1 1 1 1 1 1
4 5 4 3 4 3 3 5 1 1 2 2 3 2 2 4 5 5 5 5 4 4 3 3 3 2 2 1 1 1 1 1 1 2 2 2 2 1 1 1 1 1 1 1 1 2 2 2 2
3 4 4 5 5 6 4 3 2 1 1 2 2 1 1 3 4 4 4 5 4 4 4 4 3 3 2 2 1 1 1 1 1 2 2 2 2 2 2 2 2 2 2 2 2 2 2 2 3
3 3 4 5 4 5 5 5 3 1 2 2 2 2 1 2 3 3 4 4 4 4 4 4 4 3 2 2 2 1 2 2 2 2 2 2 2 2 2 2 2 2 2 2 3 3 3 3 3
3 4 4 5 5 5 5 2 1 1 2 3 3 2 2 2 2 2 3 3 4 3 4 4 4 3 3 2 2 2 2 2 2 2 2 3 3 2 3 3 2 3 3 3 3 3 3 4 4
5 5 6 6 6 6 7 4 2 1 2 3 4 3 2 2 2 2 2 2 3 3 3 4 4 3 3 3 3 3 2 3 3 3 3 3 3 3 3 3 3 3 3 3 3 3 3 4 4
Wind_Direction
163 143 219 239 126 91 85 84 86 90 78 69 69 70 71 56 47 74 72 50 41 50 55 61 47 46 52 59 62 63 63 63 62 61 62 64 66 66 63 65 66 65 63 64 63 61 61 60 59
42 186 246 0 108 107 92 95 92 80 94 98 83 75 76 71 63 84 82 61 59 63 60 58 53 52 53 59 62 62 62 60 58 58 60 63 64 65 64 63 62 63 62 62 62 63 62 62 63
91 7 32 70 82 89 104 105 101 99 97 95 93 68 63 70 71 78 74 85 83 74 66 66 55 56 56 61 62 59 58 57 56 58 61 61 63 64 63 63 62 63 61 61 63 64 65 65 66
249 103 84 91 91 79 96 110 116 118 99 81 97 89 81 61 65 82 95 93 86 79 72 71 56 60 58 60 61 58 58 57 57 60 61 61 62 64 63 61 63 65 63 61 63 65 65 66 65
39 98 112 103 94 91 94 102 113 104 98 92 92 96 92 72 78 91 97 91 83 79 75 76 63 61 60 59 58 56 57 58 57 60 62 63 62 64 62 61 61 64 64 64 64 63 64 65 64
96 122 125 115 108 102 101 101 110 99 96 97 98 100 89 81 87 89 91 84 79 78 76 82 81 68 63 60 57 56 58 59 59 61 63 65 64 64 61 61 61 63 66 67 67 63 65 65 64
105 112 115 121 121 112 102 99 96 100 99 89 91 97 104 94 91 100 97 90 83 79 74 72 80 85 82 68 59 57 55 55 58 62 63 65 66 64 61 61 61 64 65 67 68 64 64 65 62
85 121 122 124 127 113 114 109 95 92 92 84 78 85 100 111 118 111 98 90 83 77 74 72 72 71 76 79 68 59 56 53 54 59 60 65 78 76 68 66 61 63 65 68 70 67 66 66 63
126 129 123 124 128 119 123 118 105 93 101 92 78 73 90 118 127 114 100 92 82 74 70 72 73 70 68 67 69 70 67 54 55 67 69 68 64 63 71 62 60 62 65 69 71 71 70 71 72
104 114 107 109 118 121 120 112 118 121 105 103 98 92 108 125 126 115 102 94 87 82 72 65 66 68 69 65 65 58 56 51 43 45 56 54 57 57 59 80 68 67 71 79 74 74 80 64 63
90 102 111 110 112 121 119 110 107 123 105 108 115 121 128 129 123 113 100 86 82 82 73 65 63 62 64 66 60 53 49 45 39 37 48 48 57 61 55 62 70 66 69 68 74 69 61 61 58
106 101 110 114 114 117 118 116 106 89 94 96 111 124 133 135 128 119 106 91 87 78 70 64 59 62 62 62 60 53 50 45 41 32 42 46 49 51 52 52 50 52 55 56 55 52 56 58 61
113 112 109 110 111 111 112 108 103 87 90 105 115 125 132 134 126 120 110 105 100 91 75 69 61 54 60 62 51 55 50 41 51 43 40 47 48 54 56 60 55 51 52 60 57 53 54 54 56
118 122 119 120 120 118 114 100 101 85 109 120 121 128 133 131 129 121 115 106 98 94 84 82 66 59 58 63 68 58 49 50 48 44 41 48 51 53 50 55 54 51 48 50 55 58 55 54 55
131 127 123 117 124 138 142 106 92 94 135 135 134 135 130 127 133 136 127 112 93 87 89 91 76 62 60 55 60 57 48 51 47 41 38 49 52 54 52 44 47 46 47 57 54 60 56 56 57
150 154 149 131 148 167 198 132 107 109 157 147 144 144 147 140 134 133 144 138 105 98 94 103 111 79 65 59 63 62 57 48 46 42 37 41 50 50 52 46 44 42 43 47 52 52 54 55 52
172 169 156 152 159 182 202 166 130 146 179 170 168 167 169 156 140 136 170 189 155 122 117 121 125 113 99 80 74 65 64 52 46 44 37 35 46 50 55 47 46 48 44 43 43 49 49 51 47
172 172 169 172 158 187 202 205 170 185 205 202 196 196 191 183 178 180 166 204 206 180 145 127 127 145 133 122 77 83 67 56 50 45 35 37 44 49 59 56 52 55 58 51 45 49 52 49 42
175 184 182 170 167 212 222 236 224 212 217 227 218 214 212 205 183 179 184 193 202 190 177 143 168 157 151 135 106 68 70 52 52 49 42 47 53 56 58 52 55 51 57 56 53 57 61 54 36
196 206 198 181 181 236 246 254 237 216 224 233 235 225 219 207 194 186 187 177 193 170 163 169 187 178 157 160 147 124 95 65 61 59 59 54 56 51 44 37 51 56 57 60 61 63 44 53 37
210 235 230 237 217 218 257 246 222 204 218 227 237 237 229 221 217 203 194 185 178 184 187 220 232 192 186 170 136 124 127 148 111 89 70 42 44 46 33 22 32 45 53 58 58 56 45 32 39
232 243 238 231 240 243 250 276 241 220 220 220 227 229 227 223 220 211 200 195 191 192 203 216 225 221 152 174 186 214 252 310 350 29 65 79 53 41 26 16 28 47 47 54 48 51 48 34 23
267 213 226 236 254 264 251 266 263 196 233 232 226 226 225 221 217 208 204 202 196 180 176 184 150 102 88 171 188 234 249 329 31 31 42 66 73 40 24 4 6 2 4 3 9 354 345 16 357
175 185 193 225 248 254 260 259 278 239 278 283 254 227 221 216 211 206 196 189 183 172 170 174 166 135 120 143 177 209 221 235 280 324 337 321 98 51 28 352 343 322 323 306 296 279 268 283 305
216 236 234 227 226 243 194 249 264 357 336 307 296 256 224 207 201 196 190 188 183 179 179 180 176 166 163 163 156 164 233 254 257 274 284 292 278 268 304 301 317 317 309 304 279 253 260 259 265
228 250 258 273 268 266 211 243 255 28 345 320 303 283 226 200 196 194 194 194 192 188 188 186 185 184 181 190 203 206 210 253 277 281 283 280 280 276 276 248 270 284 274 270 270 272 266 273 267
221 238 276 275 276 271 243 242 243 126 354 349 338 326 239 202 193 194 195 199 199 195 194 195 196 197 204 214 226 236 239 239 261 278 282 281 283 287 290 266 257 262 254 256 258 267 272 274 277
277 226 228 252 267 266 258 252 252 225 318 337 328 313 269 212 200 192 196 199 202 202 198 195 203 207 215 233 242 248 248 245 249 267 271 272 278 288 284 278 268 271 262 252 254 266 275 270 264
194 210 237 250 260 270 275 259 53 303 317 315 314 308 262 224 214 209 206 204 199 198 199 202 207 212 218 230 244 246 247 247 243 253 265 270 271 267 269 273 273 267 259 253 251 261 265 266 266
250 248 242 255 256 254 271 277 102 279 313 316 311 305 263 229 221 211 210 204 202 202 205 210 214 217 224 231 242 250 252 246 243 246 254 261 262 258 261 268 269 275 269 263 258 259 262 263 266
Height
1510 1510 1511 1512 1511 1514 1522 1525 1522 1524 1525 1528 1528 1527 1528 1529 1531 1539 1540 1537 1537 1536 1534 1532 1530 1529 1528 1527 1527 1526 1525 1524 1523 1521 1521 1520 1519 1519 1518 1518 1517 1516 1516 1515 1514 1514 1513 1512 1512
1512 1512 1513 1513 1511 1521 1528 1525 1525 1526 1529 1530 1530 1530 1530 1533 1536 1538 1539 1538 1538 1537 1536 1534 1532 1531 1530 1529 1528 1527 1526 1525 1524 1523 1522 1521 1521 1520 1519 1519 1518 1518 1517 1516 1516 1515 1514 1513 1513
1512 1513 1515 1512 1515 1521 1528 1526 1527 1529 1531 1531 1531 1532 1533 1537 1539 1539 1540 1539 1539 1538 1537 1535 1534 1533 1532 1531 1530 1529 1528 1526 1525 1524 1523 1522 1522 1521 1521 1520 1520 1519 1518 1518 1517 1516 1515 1515 1514
1514 1516 1516 1516 1523 1524 1524 1526 1528 1530 1532 1532 1532 1534 1537 1540 1541 1541 1540 1540 1540 1540 1539 1537 1536 1535 1534 1533 1532 1530 1529 1528 1527 1526 1525 1524 1523 1522 1522 1522 1521 1521 1520 1519 1518 1518 1517 1516 1515
1515 1516 1516 1522 1526 1527 1527 1528 1529 1530 1531 1533 1533 1535 1539 1542 1541 1542 1542 1542 1542 1541 1540 1539 1538 1536 1535 1534 1533 1532 1531 1530 1529 1528 1527 1526 1525 1524 1524 1523 1523 1522 1521 1520 1520 1519 1518 1517 1516
1517 1515 1519 1526 1528 1528 1529 1531 1531 1532 1534 1535 1536 1537 1541 1543 1543 1543 1543 1543 1543 1542 1542 1541 1539 1538 1537 1536 1535 1534 1532 1531 1530 1529 1528 1528 1527 1526 1526 1525 1524 1524 1523 1522 1521 1521 1520 1519 1518
1518 1517 1521 1525 1529 1530 1532 1533 1532 1533 1535 1537 1538 1538 1542 1544 1544 1544 1544 1544 1544 1544 1543 1543 1542 1540 1539 1538 1536 1535 1534 1533 1532 1531 1530 1529 1529 1528 1527 1527 1526 1525 1524 1524 1523 1522 1521 1520 1519
1519 1519 1523 1526 1529 1532 1534 1535 1536 1536 1537 1540 1540 1540 1543 1545 1545 1545 1545 1545 1545 1545 1544 1544 1543 1543 1542 1540 1538 1537 1536 1534 1533 1532 1531 1531 1530 1529 1529 1528 1527 1527 1526 1525 1525 1524 1523 1522 1521
1520 1521 1525 1528 1529 1532 1534 1535 1538 1539 1540 1541 1542 1543 1545 1545 1545 1546 1546 1546 1546 1545 1545 1545 1545 1544 1543 1542 1540 1539 1537 1536 1534 1533 1532 1532 1532 1532 1531 1530 1529 1528 1528 1527 1526 1526 1525 1524 1523
1521 1522 1527 1528 1529 1532 1535 1536 1538 1539 1540 1542 1543 1545 1545 1545 1546 1546 1546 1546 1546 1546 1546 1546 1546 1545 1544 1543 1542 1541 1539 1537 1536 1534 1533 1533 1533 1533 1532 1531 1530 1530 1529 1528 1528 1527 1526 1526 1525
1523 1525 1529 1531 1533 1534 1536 1538 1539 1539 1540 1543 1544 1545 1546 1546 1547 1547 1547 1547 1547 1547 1547 1547 1546 1546 1545 1544 1543 1542 1540 1539 1537 1536 1534 1534 1534 1534 1533 1533 1532 1532 1531 1530 1530 1529 1528 1528 1527
1526 1529 1531 1534 1535 1536 1537 1539 1540 1541 1543 1545 1545 1546 1546 1547 1547 1548 1548 1548 1548 1548 1548 1547 1547 1547 1546 1545 1544 1543 1542 1541 1539 1537 1536 1535 1535 1535 1535 1534 1534 1533 1532 1532 1531 1530 1530 1529 1528
1528 1532 1534 1536 1537 1538 1539 1540 1542 1544 1545 1546 1546 1546 1547 1548 1548 1549 1549 1549 1549 1548 1548 1548 1548 1547 1547 1546 1545 1544 1543 1542 1541 1539 1538 1537 1537 1536 1536 1535 1534 1534 1534 1533 1532 1532 1531 1530 1529
1531 1533 1535 1537 1538 1540 1540 1542 1543 1546 1546 1546 1546 1547 1548 1548 1549 1549 1549 1549 1549 1549 1549 1549 1548 1548 1548 1547 1546 1545 1544 1543 1542 1541 1540 1539 1538 1538 1537 1537 1536 1535 1535 1535 1534 1533 1532 1531 1530
1533 1533 1536 1538 1538 1540 1540 1542 1544 1546 1547 1546 1547 1547 1548 1549 1549 1550 1550 1550 1550 1549 1549 1549 1548 1548 1548 1547 1547 1546 1545 1544 1543 1542 1541 1540 1539 1539 1538 1538 1537 1536 1536 1536 1535 1534 1533 1532 1532
1531 1533 1537 1538 1538 1540 1541 1545 1545 1547 1547 1546 1547 1547 1548 1549 1549 1550 1550 1550 1550 1549 1549 1549 1548 1548 1548 1547 1547 1546 1546 1545 1544 1542 1542 1541 1540 1540 1539 1538 1538 1537 1537 1536 1535 1535 1534 1533 1533
1531 1534 1536 1538 1538 1539 1539 1542 1545 1546 1546 1546 1546 1547 1548 1548 1549 1549 1549 1549 1550 1549 1549 1548 1548 1548 1548 1547 1547 1546 1546 1545 1544 1543 1542 1542 1541 1540 1540 1539 1538 1538 1537 1537 1536 1535 1535 1534 1533
1534 1533 1536 1537 1538 1538 1539 1541 1543 1545 1545 1545 1545 1546 1546 1547 1548 1548 1548 1549 1549 1549 1549 1548 1548 1548 1548 1547 1547 1546 1546 1545 1544 1544 1543 1542 1541 1541 1540 1539 1539 1538 1538 1537 1537 1536 1535 1534 1534
1530 1533 1536 1537 1538 1539 1539 1539 1540 1542 1543 1543 1543 1544 1545 1546 1547 1547 1547 1547 1548 1548 1548 1548 1548 1547 1547 1547 1546 1546 1546 1545 1544 1544 1543 1542 1541 1541 1540 1540 1539 1539 1538 1538 1537 1536 1535 1535 1534
1532 1534 1536 1536 1538 1538 1538 1537 1537 1539 1540 1541 1541 1542 1543 1544 1545 1545 1546 1546 1546 1547 1547 1547 1547 1547 1546 1546 1546 1545 1545 1545 1544 1543 1543 1542 1542 1541 1541 1540 1540 1539 1538 1538 1537 1536 1535 1535 1534
1534 1534 1535 1537 1537 1537 1538 1536 1534 1535 1538 1540 1540 1541 1541 1542 1543 1543 1544 1545 1545 1545 1546 1546 1546 1546 1546 1545 1545 1545 1544 1544 1544 1543 1543 1542 1542 1541 1540 1540 1539 1539 1538 1537 1537 1536 1535 1535 1535
1535 1533 1534 1536 1537 1535 1537 1538 1530 1531 1533 1536 1537 1538 1539 1540 1541 1542 1542 1543 1544 1544 1544 1545 1545 1545 1545 1544 1544 1544 1544 1544 1543 1543 1542 1542 1541 1540 1540 1539 1539 1538 1537 1537 1536 1536 1535 1535 1534
1534 1535 1534 1534 1534 1535 1533 1535 1530 1529 1531 1531 1534 1536 1537 1538 1539 1540 1541 1541 1542 1543 1543 1543 1543 1544 1543 1543 1543 1543 1543 1543 1542 1542 1541 1541 1540 1540 1539 1538 1538 1537 1537 1536 1536 1535 1535 1534 1534
1535 1535 1535 1534 1533 1539 1533 1536 1533 1527 1529 1529 1531 1533 1534 1536 1537 1538 1539 1540 1540 1541 1541 1542 1542 1542 1542 1542 1542 1542 1542 1541 1541 1540 1540 1540 1539 1539 1538 1537 1537 1536 1536 1535 1535 1534 1534 1533 1533
1534 1534 1539 1540 1539 1536 1533 1536 1532 1526 1528 1530 1530 1531 1533 1534 1535 1536 1536 1537 1538 1539 1540 1540 1541 1541 1541 1541 1540 1540 1540 1540 1539 1539 1539 1538 1538 1537 1536 1536 1535 1535 1534 1534 1533 1533 1533 1532 1532
1532 1532 1540 1546 1541 1533 1533 1533 1526 1527 1529 1530 1530 1531 1531 1532 1533 1534 1535 1536 1536 1537 1538 1538 1539 1539 1539 1539 1539 1539 1538 1538 1537 1537 1537 1536 1536 1535 1535 1534 1534 1533 1533 1533 1532 1532 1531 1531 1531
1533 1532 1531 1534 1534 1536 1529 1527 1525 1526 1527 1529 1529 1530 1530 1531 1532 1532 1533 1534 1535 1535 1536 1536 1537 1537 1537 1537 1537 1537 1536 1536 1535 1535 1534 1534 1533 1533 1533 1532 1532 1531 1531 1531 1530 1530 1530 1529 1529
1533 1531 1533 1535 1540 1539 1532 1529 1526 1524 1525 1526 1528 1528 1529 1530 1530 1531 1532 1532 1533 1534 1534 1534 1535 1535 1535 1535 1535 1534 1534 1533 1533 1532 1532 1531 1531 1530 1530 1530 1529 1529 1528 1528 1528 1527 1527 1527 1527
1534 1535 1533 1532 1533 1538 1536 1530 1521 1523 1524 1526 1527 1528 1528 1529 1529 1530 1530 1531 1531 1532 1532 1532 1532 1532 1533 1532 1532 1532 1531 1531 1530 1529 1529 1528 1528 1527 1526 1526 1526 1526 1526 1525 1525 1524 1524 1524 1524
1531 1530 1531 1536 1534 1533 1533 1530 1521 1523 1525 1526 1527 1527 1527 1528 1528 1528 1529 1529 1529 1530 1530 1530 1530 1530 1530 1530 1529 1529 1528 1528 1527 1527 1526 1526 1525 1524 1524 1523 1523 1523 1522 1522 1522 1521 1521 1521 1521